EHI
0 3 8 10 10 7 6 6 5 5 5 4 4 4 4 3 1 0 0 0 0 0 0 0 1 1 0 0 0 0 1 1 1 1 3 4 3 1 0 0 0 1 1
2 4 8 11 10 7 5 5 5 4 4 4 4 4 3 2 1 0 0 0 0 0 1 1 2 2 1 1 0 0 1 1 0 0 1 2 2 1 0 0 0 0 1
4 4 7 9 9 7 5 5 4 3 3 3 4 4 3 1 1 0 1 1 1 1 2 3 4 3 3 2 1 1 2 1 0 0 0 1 1 1 0 0 0 0 0
4 4 5 8 9 8 6 5 5 5 3 2 3 3 2 1 0 1 2 2 2 3 4 5 5 4 3 3 2 2 3 1 0 0 0 0 0 0 0 0 0 0 0
2 3 5 10 12 10 9 7 7 6 4 3 3 4 3 1 1 1 2 2 3 4 5 6 7 5 4 3 2 2 2 1 0 0 0 0 0 0 1 1 1 0 0
1 2 4 9 13 13 12 10 8 7 6 4 3 4 4 3 2 3 3 3 4 5 6 7 8 7 5 4 3 2 1 1 0 0 0 0 0 0 1 2 2 1 0
1 1 3 7 10 11 11 10 9 8 6 4 2 4 6 7 6 5 5 5 5 6 6 7 8 8 7 5 4 3 2 1 0 0 0 0 0 0 1 3 3 1 0
0 0 1 4 6 8 9 8 7 7 6 4 3 4 7 10 10 8 7 6 5 4 4 5 7 7 6 5 4 4 4 3 1 1 1 1 0 0 1 3 3 1 0
0 0 0 1 2 5 6 5 5 5 6 6 4 5 8 10 10 8 7 6 5 4 3 4 5 6 5 3 3 4 5 4 3 2 2 2 1 0 1 2 3 1 0
0 0 0 1 1 2 3 4 4 4 6 6 5 4 6 7 7 7 8 7 5 3 3 3 3 4 3 1 2 3 4 4 3 3 3 2 1 0 1 3 3 2 1
1 0 1 2 2 2 2 2 2 3 3 4 3 3 3 3 3 5 7 8 5 3 3 3 4 3 2 1 2 3 3 3 3 3 3 2 1 1 3 4 4 3 3
1 0 1 2 3 3 3 2 1 1 1 1 1 2 2 1 1 2 4 4 3 2 3 4 5 5 3 2 3 4 4 3 3 3 2 2 2 3 4 6 6 4 3
1 0 1 2 3 3 3 2 1 1 1 1 1 1 1 1 0 0 1 1 1 1 2 3 4 4 4 3 3 4 3 3 4 4 2 2 4 5 6 7 7 5 4
1 0 1 2 3 3 4 3 2 1 2 1 1 1 0 0 0 0 0 0 0 0 0 1 1 2 2 2 2 3 3 3 3 3 2 3 5 6 6 7 7 7 6
1 1 1 2 3 4 4 4 2 1 1 1 0 0 0 0 0 0 0 0 0 0 0 0 0 0 1 1 1 1 2 2 2 2 2 3 4 5 6 6 8 9 8
1 1 1 1 2 3 4 3 1 0 0 0 0 0 0 0 0 0 0 0 0 0 0 0 0 0 0 0 0 0 1 1 1 1 0 1 2 3 5 6 9 10 9
1 1 2 2 2 2 2 1 0 0 0 0 0 0 0 0 0 0 0 0 0 0 0 0 0 0 0 0 0 0 0 0 0 0 0 0 0 1 3 6 9 11 10
1 2 3 4 3 1 1 0 0 0 0 0 0 0 0 0 0 0 0 0 0 0 0 0 0 0 0 0 0 0 0 0 0 0 0 0 0 0 1 4 7 9 9
2 3 4 5 3 2 2 1 0 0 0 0 0 0 0 0 0 0 0 0 0 0 0 0 0 0 0 0 0 0 0 0 0 0 0 0 0 0 0 1 4 6 6
3 3 4 4 4 4 4 3 1 0 0 0 0 0 0 0 0 0 0 0 0 0 0 0 0 0 0 0 0 0 0 0 0 0 0 0 0 0 0 0 2 4 5
3 3 3 4 4 5 5 3 2 1 0 0 0 0 0 1 1 1 0 0 0 0 0 0 0 0 0 0 0 0 1 1 1 0 0 0 0 0 0 0 0 2 3
4 3 3 4 5 7 6 4 3 2 1 0 0 0 0 1 2 1 0 0 0 0 0 0 0 0 0 0 0 0 1 1 1 0 0 0 0 0 0 0 0 0 1
4 4 4 5 7 7 6 4 3 3 2 1 0 0 0 1 1 1 0 0 0 0 0 0 0 0 0 0 0 0 0 1 0 0 0 0 0 0 0 0 0 0 0
4 4 5 6 6 5 5 5 4 3 3 2 1 0 0 0 0 0 0 0 0 0 0 0 0 0 0 0 0 0 0 0 0 0 0 0 0 0 0 0 0 0 0
6 6 6 6 5 4 4 5 5 4 3 2 1 0 0 0 0 0 0 0 0 0 0 0 0 0 0 0 0 0 0 0 0 0 0 0 0 0 0 0 0 0 0
9 8 7 6 4 3 4 6 6 5 4 2 1 0 0 0 0 0 0 0 0 0 0 0 0 0 0 0 0 0 0 0 0 0 0 0 0 0 0 0 0 0 0
Wind_Speed
2 3 3 3 3 4 5 5 5 5 4 5 5 5 5 5 5 6 7 9 9 9 9 10 10 11 11 11 12 12 12 11 11 12 12 11 11 11 10 10 9 6 9
2 1 2 2 2 3 6 5 5 4 4 4 4 5 5 5 5 5 7 9 9 9 9 9 10 10 11 11 11 11 11 11 11 11 11 10 10 10 10 10 9 6 9
1 0 1 1 2 3 5 5 4 4 4 3 4 5 5 5 5 6 7 8 8 8 8 9 9 10 11 11 11 11 11 10 10 11 10 6 7 10 10 10 10 9 9
2 1 0 2 2 3 5 4 4 4 4 3 4 5 5 5 5 5 6 7 7 8 8 8 9 10 10 11 11 11 11 10 10 10 6 5 6 10 10 9 9 9 9
2 1 0 2 3 3 4 4 4 4 4 3 4 5 6 5 5 5 6 6 6 7 7 7 8 9 10 10 10 11 11 11 10 8 6 5 5 9 10 9 9 9 9
1 1 1 2 2 3 3 3 4 4 4 4 5 5 5 5 5 5 5 5 6 6 6 6 7 8 9 10 10 11 11 11 9 5 5 5 5 9 10 10 9 9 9
1 1 0 2 2 3 3 4 4 5 5 5 5 4 5 4 4 5 5 5 5 5 5 6 6 7 9 9 10 11 11 11 7 6 5 5 6 9 10 9 9 9 8
1 1 1 0 2 3 4 4 4 5 5 5 5 4 3 3 4 4 5 4 4 4 4 5 6 8 8 9 9 10 10 10 7 6 5 5 8 9 9 9 9 8 8
2 2 2 2 1 2 3 4 4 5 5 5 5 4 4 3 4 4 5 4 4 4 4 5 7 8 9 9 9 9 9 9 5 4 5 4 8 9 9 9 9 8 7
3 2 2 2 2 2 2 3 4 4 4 5 5 5 5 5 5 5 4 4 4 4 4 6 7 8 9 9 9 9 9 7 4 4 3 5 9 9 9 8 8 7 7
3 2 2 2 2 2 2 2 3 3 4 4 4 6 6 5 4 4 5 5 4 4 5 6 7 8 9 8 8 8 6 3 4 3 3 6 8 9 8 8 8 7 6
2 2 2 2 2 2 2 2 3 3 4 4 4 4 4 4 4 4 5 5 5 5 5 7 8 7 6 4 5 5 3 4 3 3 3 7 7 7 8 8 7 7 6
1 2 2 2 2 2 2 2 2 2 3 4 4 4 4 4 3 3 3 3 4 5 4 5 5 4 4 3 3 3 4 3 2 2 4 6 6 6 6 7 7 6 5
3 3 3 3 3 2 2 2 2 2 2 3 3 4 3 3 3 3 3 3 3 3 4 4 4 5 5 5 4 4 4 3 2 2 3 6 5 5 5 5 6 5 5
3 2 2 3 3 2 3 2 3 3 2 2 2 3 3 3 3 3 3 3 4 3 4 4 4 5 5 4 4 5 4 4 3 2 2 5 5 5 5 4 5 5 5
2 2 3 3 3 3 2 2 2 2 2 2 2 3 3 3 3 3 3 3 3 3 4 4 4 4 3 3 4 4 4 3 3 2 1 2 4 4 4 4 4 4 4
2 2 2 3 3 3 2 2 2 2 2 2 2 3 3 3 3 3 3 3 3 3 4 4 4 4 4 4 4 3 2 2 2 2 1 1 1 3 4 4 4 4 4
2 3 2 2 3 3 2 2 2 2 3 2 2 2 3 3 3 3 3 3 3 3 3 3 3 3 3 3 3 2 2 2 2 2 1 1 1 1 2 2 2 2 3
2 3 3 2 3 3 3 3 3 3 3 2 2 2 2 3 3 3 3 2 3 3 3 3 3 3 3 3 2 2 1 1 1 1 1 1 1 1 1 1 1 2 2
2 3 3 2 3 3 3 3 3 3 3 3 2 2 2 2 3 3 3 3 3 3 3 3 3 3 2 2 2 2 2 1 1 1 1 1 1 1 1 1 1 1 1
2 3 3 3 2 2 2 2 2 2 2 2 2 3 3 3 3 3 3 2 3 3 2 3 2 3 2 1 2 2 2 2 1 1 1 1 1 1 1 1 1 0 0
3 3 2 2 2 2 2 2 2 2 1 1 2 3 3 3 3 3 3 2 2 2 3 2 2 1 1 1 1 2 2 2 2 1 1 1 0 0 0 1 1 1 0
3 3 3 2 2 2 3 2 3 3 2 2 3 2 3 3 3 3 3 2 2 2 2 1 1 2 1 1 1 2 1 1 1 2 1 1 1 0 0 0 1 1 1
4 3 3 3 3 3 3 3 3 2 1 1 0 1 2 3 3 3 3 2 2 2 2 1 1 1 2 0 0 0 1 2 1 0 1 1 1 0 0 0 0 1 1
4 4 3 3 3 2 3 3 3 2 1 1 1 2 3 3 3 3 2 2 2 1 1 1 1 1 1 1 1 0 1 0 1 2 1 1 1 1 0 0 0 1 1
4 4 4 3 2 2 3 3 3 3 2 2 2 2 2 2 2 3 2 2 2 1 1 1 1 1 1 1 1 1 1 1 1 1 1 1 1 1 1 0 0 0 0
Wind_Direction
263 251 215 205 195 187 172 164 157 151 145 142 138 130 134 141 150 155 158 163 166 167 167 167 169 169 168 167 166 166 165 164 162 161 161 162 163 160 158 156 151 149 149
225 242 202 192 169 173 164 158 151 146 141 142 139 136 137 142 148 153 157 162 165 168 168 169 170 173 172 171 168 166 165 166 166 165 164 163 164 162 162 160 159 154 154
102 309 226 126 119 136 151 152 149 144 141 140 138 136 137 139 144 153 155 157 162 166 169 170 173 174 173 173 170 169 166 164 167 168 167 162 165 166 168 167 164 160 156
109 30 293 105 108 125 138 147 148 144 138 136 137 140 139 135 141 151 154 157 161 165 167 169 172 173 173 174 174 172 169 166 163 162 159 152 160 166 171 172 169 165 162
86 54 14 101 94 116 134 138 137 136 126 121 128 139 140 133 136 143 148 155 160 162 166 169 172 174 174 176 175 171 171 168 164 159 148 150 158 170 173 174 170 167 167
69 46 50 113 106 118 122 127 127 121 115 111 114 123 133 130 128 133 141 153 160 163 168 172 175 176 172 172 170 167 167 162 159 153 152 158 166 176 178 175 171 168 166
64 25 17 142 121 115 110 111 113 111 108 108 107 106 115 125 132 134 135 143 150 161 171 171 172 171 170 168 167 167 161 158 152 152 158 161 167 167 169 167 164 163 163
88 15 2 123 118 110 106 104 103 105 105 103 103 102 104 118 134 134 140 140 142 149 156 159 159 158 158 158 156 155 155 157 152 154 155 159 163 166 167 165 162 162 165
52 43 9 356 24 96 106 103 103 103 104 102 99 90 79 90 119 127 135 139 136 132 138 141 142 144 143 145 147 150 153 153 149 152 157 159 165 168 169 167 165 166 172
53 46 23 5 15 36 62 94 99 96 96 96 90 78 69 81 104 110 112 128 122 118 123 124 126 130 136 135 137 142 145 140 134 144 154 164 170 172 172 173 171 172 176
57 39 24 26 37 44 44 56 64 75 70 69 66 63 52 46 63 83 86 99 106 105 112 118 117 119 120 123 126 128 128 121 122 131 149 164 171 174 175 178 174 176 179
54 39 39 51 52 51 51 47 37 41 43 41 38 42 43 45 52 60 69 78 77 80 87 102 109 107 102 103 112 115 111 116 120 128 145 156 166 173 179 180 179 184 186
63 51 56 69 64 59 48 51 44 41 43 38 36 43 46 42 40 40 42 49 49 58 66 86 91 88 95 98 99 106 111 113 116 127 136 141 152 166 173 182 187 185 183
72 59 57 69 69 60 54 52 59 56 48 42 33 39 52 47 42 39 42 35 40 49 66 76 82 83 87 88 91 101 105 109 115 121 136 143 149 161 169 170 169 166 164
78 69 72 77 73 66 62 53 65 59 54 47 39 39 57 62 52 48 47 46 48 53 67 76 80 83 84 83 83 91 96 100 107 114 128 142 149 159 165 168 167 166 175
95 84 82 83 82 78 73 68 66 62 53 48 44 47 61 67 66 62 58 54 52 58 69 79 83 83 79 82 79 81 88 95 99 108 118 147 157 160 167 172 172 174 178
107 87 90 100 86 84 77 68 71 64 64 55 41 47 65 72 73 75 70 62 60 65 72 78 76 78 81 81 78 74 79 87 98 107 118 123 156 169 178 175 173 180 184
107 94 88 102 100 94 84 74 70 66 68 57 46 51 68 76 78 79 76 70 69 74 76 79 74 75 73 75 68 55 65 82 93 98 102 117 130 159 167 175 169 175 180
124 113 103 90 100 101 91 78 69 65 61 54 50 51 62 73 81 85 79 76 73 74 70 79 73 82 87 78 72 56 50 61 72 91 99 110 115 106 113 165 138 131 158
108 106 107 96 88 93 88 76 64 55 45 42 43 46 61 68 80 84 79 72 77 78 68 71 76 72 85 83 71 55 34 28 56 69 97 98 111 125 122 118 97 107 141
105 109 115 111 99 101 98 94 84 62 41 40 41 47 58 66 78 88 90 82 81 87 88 88 90 79 63 77 84 50 30 41 55 53 85 99 107 133 142 156 159 160 90
145 143 138 136 128 124 115 113 113 106 75 64 42 42 48 63 75 94 99 100 98 98 87 85 90 93 58 61 101 84 26 11 11 26 66 123 109 115 155 183 184 184 207
161 163 160 155 140 122 109 95 83 62 49 43 38 30 28 53 61 70 80 89 97 111 118 104 105 122 125 46 82 133 135 208 327 355 2 23 48 84 87 149 168 180 192
174 152 143 144 136 125 122 121 122 115 103 51 44 36 30 42 52 66 77 83 90 100 108 117 108 135 141 142 22 87 182 176 167 327 346 5 31 41 348 297 146 163 167
152 142 140 133 124 124 124 132 125 111 106 78 63 57 40 32 39 50 70 83 81 83 101 101 94 113 144 164 191 180 140 125 148 169 244 325 0 331 273 232 202 183 191
138 138 138 136 127 120 122 127 128 126 116 95 67 58 39 24 24 31 53 59 63 70 70 95 111 119 132 167 196 187 180 188 183 169 195 245 285 308 313 277 260 257 219